sat.trackr.live / text

‹ back to catalog

STARLINK-11672 [DTC]

NORAD 63665 · 2025-085B

PAYLOAD ACTIVE UNKNOWN

§ Identity

Operator
Country
US
Launch date
2025-04-28
Launch site
AFETR
Launch vehicle
Mass (kg)
RCS (m²)

Purposes: comms

External: N2YO · Heavens-Above · Gunter

§ Orbital elements

Epoch: 2026-05-24T11:05:03.698304Z

Period
91.67 min
Inclination
42.9997°
Eccentricity
0.0002138
Mean motion
15.70854115 rev/d
Perigee alt
355.0 km
Apogee alt
357.9 km
Semi-major
6,734.6 km
B*
1.1773e-3
RAAN
181.2532°
Arg perigee
271.2794°
Mean anomaly
88.7829°
Rev number
6,277

§ Raw data

STARLINK-11672 [DTC]1 63665U 25085B   26144.46184836  .00153535  00000+0  11773-2 0  99952 63665  42.9997 181.2532 0002138 271.2794  88.7829 15.70854115 62777

JSON: /api/v1/satellites/63665 · /tle

For live sub-satellite position, see the globe view (requires WebGL).

§ Visibility from observer

Set your observer location to see the next 7 days of passes ≥ 10°. The values pass through the URL so the page stays shareable.

No JS? Fill the form by hand. The geolocation button needs JavaScript.